Location: Battersea Observatory
(44.4318°N, 76.3841°W)
Time: 05:07:54
(UTC-05:00)

deb Explorer IX - All Passes

Search period start: 19 January 2022 00:00
Search period end: 29 January 2022 00:00
Orbit: 544 x 1082 km, 38.8° (Epoch: 18 January)

Date Brightness Start Highest point End Pass type
(mag) Time Alt. Az. Time Alt. Az. Time Alt. Az.
19 Jan - 14:17:45 10° S 14:19:03 11° SSE 14:20:20 10° SE daylight
19 Jan - 16:01:12 10° SW 16:04:46 30° SSE 16:08:29 10° ESE daylight
19 Jan - 17:46:56 10° WSW 17:50:49 39° S 17:55:04 10° ESE visible
19 Jan - 19:33:18 10° WSW 19:36:54 25° SSW 19:40:53 10° SE visible
20 Jan - 13:52:03 10° SSE 13:53:17 11° SSE 13:54:31 10° SE daylight
20 Jan - 15:35:28 10° SW 15:39:03 29° SSE 15:42:41 10° ESE daylight
20 Jan - 17:21:14 10° WSW 17:25:04 38° S 17:29:11 10° ESE visible
20 Jan - 19:07:37 10° WSW 19:11:08 24° SSW 19:14:57 10° SE visible
21 Jan - 13:26:17 10° SSE 13:27:31 11° SSE 13:28:44 10° SE daylight
21 Jan - 15:09:43 10° SW 15:13:17 29° SSE 15:16:52 10° ESE daylight
21 Jan - 16:55:31 10° WSW 16:59:19 38° S 17:03:19 10° ESE daylight
21 Jan - 18:41:56 10° WSW 18:45:21 24° SSW 18:49:02 10° SE visible
22 Jan - 13:00:27 10° SSE 13:01:44 11° SSE 13:02:59 10° SE daylight
22 Jan - 14:43:55 10° SW 14:47:32 29° SSE 14:51:04 10° ESE daylight
22 Jan - 16:29:45 10° WSW 16:33:33 38° S 16:37:28 10° ESE daylight
22 Jan - 18:16:13 10° WSW 18:19:33 23° SSW 18:23:06 10° SE visible
23 Jan - 12:34:32 10° S 12:35:55 11° SSE 12:37:16 10° SE daylight
23 Jan - 14:18:04 10° SW 14:21:44 29° SSE 14:25:16 10° ESE daylight
23 Jan - 16:03:58 10° WSW 16:07:45 37° S 16:11:37 10° ESE daylight
23 Jan - 17:50:27 10° WSW 17:53:45 23° SSW 17:57:12 10° SE visible
24 Jan - 12:08:34 10° S 12:10:05 12° SSE 12:11:34 10° SE daylight
24 Jan - 13:52:11 10° SW 13:55:56 29° SSE 13:59:29 10° ESE daylight
24 Jan - 15:38:07 10° WSW 15:41:57 37° S 15:45:46 10° ESE daylight
24 Jan - 17:24:40 10° WSW 17:27:56 23° SSW 17:31:19 10° SE daylight
25 Jan - 11:42:31 10° S 11:44:13 12° SSE 11:45:51 10° SE daylight
25 Jan - 13:26:15 10° SW 13:30:06 29° SSE 13:33:41 10° ESE daylight
25 Jan - 15:12:15 10° WSW 15:16:09 38° S 15:19:56 10° ESE daylight
25 Jan - 16:58:51 10° WSW 17:02:06 23° SSW 17:05:26 10° SE daylight
26 Jan - 11:16:28 10° S 11:18:20 12° SSE 11:20:09 10° SE daylight
26 Jan - 13:00:17 10° SW 13:04:15 29° SSE 13:07:54 10° ESE daylight
26 Jan - 14:46:20 10° WSW 14:50:18 38° S 14:54:06 10° ESE daylight
26 Jan - 16:32:59 10° WSW 16:36:16 23° SSW 16:39:33 10° SE daylight
27 Jan - 10:50:20 10° S 10:52:25 13° SSE 10:54:25 10° SE daylight
27 Jan - 12:34:16 10° SW 12:38:22 30° SSE 12:42:06 10° ESE daylight
27 Jan - 14:20:22 10° WSW 14:24:27 39° S 14:28:16 10° ESE daylight
27 Jan - 16:07:03 10° WSW 16:10:24 24° SSW 16:13:42 10° SE daylight
28 Jan - 10:24:11 10° S 10:26:29 13° SSE 10:28:40 10° SE daylight
28 Jan - 12:08:12 10° SW 12:12:27 30° SSE 12:16:17 10° ESE daylight
28 Jan - 13:54:22 10° WSW 13:58:34 39° S 14:02:26 10° ESE daylight
28 Jan - 15:41:07 10° WSW 15:44:32 24° SSW 15:47:51 10° SE daylight
